Cadillac, MI

10:08 AM EDT on September 19, 2017 (GMT -0400)
Wexford County

Weather History for KCAD - March, 2013

Change the Weather History Date:

Tuesday, March 26, 2013

  Actual Average Record
Temperature  
Mean Temperature 34 °F -  
Max Temperature 37 °F 42 °F 73 °F (2007)
Min Temperature 31 °F 21 °F -14 °F (2014)
Degree Days  
Heating Degree Days 31    
Moisture  
Dew Point 26 °F    
Average Humidity 73    
Maximum Humidity 87    
Minimum Humidity 52    
Precipitation  
Precipitation 0.00 in - - ()
Sea Level Pressure  
Sea Level Pressure 30.02 in    
Wind  
Wind Speed 9 mph (NNW)    
Max Wind Speed 15 mph    
Max Gust Speed 24 mph    
Visibility 10 miles    
Events Snow    
Averages and records for this station are not official NWS values.
T = Trace of Precipitation, MM = Missing Value Source: NWS Daily Summary

Daily Weather History Graph

Daily Weather History Graph

Search for Another Location

Airport or City:

Trip Planner

Search our weather history database for the weather conditions in past years. The results will help you decide how hot, cold, wet, or windy it might be!

Date:

Astronomy

Mar. 26, 2013 Rise Set
Actual Time 7:33 AM EDT 8:01 PM EDT
Civil Twilight 7:04 AM EDT 8:30 PM EDT
Nautical Twilight 6:30 AM EDT 9:05 PM EDT
Astronomical Twilight 5:54 AM EDT 9:40 PM EDT
Moon 7:38 PM EDT (3/26) 6:50 AM EDT (3/26)
Length of Visible Light 13h 26m
Length of Day
12h 28m
Waxing Gibbous, 99% of the Moon is Illuminated
Mar 26
Waxing Gibbous
Mar 27
Full
Apr 3
Last Quarter
Apr 10
New
Apr 18
First Quarter

Hourly Weather History & Observations

Time (EDT) Temp. Windchill Dew Point Humidity Pressure Visibility Wind Dir Wind Speed Gust Speed Precip Events Conditions
12:15 AM 31.5 °F 24.2 °F 25.3 °F 78% 29.95 in 10.0 mi NNW 8.1 mph 17.3 mph N/A   Overcast
12:35 AM 31.5 °F 24.9 °F 25.3 °F 78% 29.95 in 10.0 mi North 6.9 mph - N/A Snow Light Snow
12:53 AM 31.5 °F 28.1 °F 25.3 °F 78% 29.96 in 10.0 mi NNW 3.5 mph - N/A Snow Light Snow
1:19 AM - - - N/A% - - North - - N/A   Unknown
1:21 AM 31.5 °F 26.8 °F 25.7 °F 79% 29.96 in 10.0 mi NNW 4.6 mph - N/A   Overcast
1:35 AM 31.5 °F 24.9 °F 25.7 °F 79% 29.96 in 10.0 mi North 6.9 mph - N/A   Overcast
1:55 AM 31.5 °F 24.9 °F 25.9 °F 80% 29.96 in 10.0 mi NW 6.9 mph - N/A   Overcast
2:15 AM 31.5 °F 24.2 °F 26.2 °F 81% 29.96 in 10.0 mi NNW 8.1 mph - N/A   Overcast
2:35 AM 31.5 °F 25.8 °F 26.4 °F 82% 29.96 in 10.0 mi NW 5.8 mph - N/A   Overcast
2:55 AM 31.5 °F 24.9 °F 26.6 °F 82% 29.96 in 10.0 mi NNW 6.9 mph - N/A   Overcast
3:15 AM 31.5 °F 22.9 °F 27.0 °F 83% 29.95 in 10.0 mi NNW 10.4 mph - N/A   Overcast
3:35 AM 31.5 °F 24.2 °F 27.1 °F 84% 29.95 in 10.0 mi NNW 8.1 mph - N/A   Overcast
3:55 AM 31.5 °F 23.5 °F 27.3 °F 85% 29.95 in 10.0 mi NNW 9.2 mph - N/A   Overcast
4:15 AM 31.5 °F 24.2 °F 27.5 °F 85% 29.95 in 10.0 mi NNW 8.1 mph - N/A   Overcast
4:35 AM 31.5 °F 23.5 °F 27.5 °F 85% 29.95 in 10.0 mi NNW 9.2 mph 18.4 mph N/A   Overcast
4:55 AM 31.5 °F 22.9 °F 27.5 °F 85% 29.95 in 7.0 mi NNW 10.4 mph - N/A Snow Light Snow
5:14 AM 31.5 °F 23.5 °F 27.9 °F 87% 29.96 in 10.0 mi NNW 9.2 mph - N/A Snow Light Snow
5:35 AM 31.5 °F 23.5 °F 27.7 °F 86% 29.96 in 10.0 mi NNW 9.2 mph - N/A   Overcast
5:55 AM 31.5 °F 24.9 °F 27.5 °F 85% 29.96 in 10.0 mi NNW 6.9 mph - N/A   Overcast
6:15 AM 31.5 °F 23.5 °F 27.9 °F 87% 29.96 in 10.0 mi NNW 9.2 mph - N/A   Overcast
6:35 AM 31.5 °F 23.5 °F 27.9 °F 87% 29.97 in 10.0 mi NNW 9.2 mph - N/A   Overcast
6:55 AM 31.5 °F 24.2 °F 27.9 °F 87% 29.97 in 10.0 mi NNW 8.1 mph - N/A   Overcast
7:14 AM 31.5 °F 23.5 °F 27.5 °F 85% 29.98 in 10.0 mi NNW 9.2 mph - N/A Snow Light Snow
7:35 AM 31.5 °F 24.2 °F 27.9 °F 87% 29.98 in 7.0 mi NW 8.1 mph - N/A Snow Light Snow
7:55 AM 31.5 °F 24.9 °F 27.9 °F 87% 29.99 in 10.0 mi NW 6.9 mph - N/A Snow Light Snow
8:15 AM 31.5 °F 24.2 °F 27.5 °F 85% 30.00 in 10.0 mi NNW 8.1 mph - N/A   Overcast
8:35 AM 31.5 °F 24.2 °F 27.5 °F 85% 30.00 in 10.0 mi NW 8.1 mph - N/A   Overcast
8:55 AM 31.5 °F 24.9 °F 27.5 °F 85% 30.01 in 10.0 mi NNW 6.9 mph - N/A   Overcast
9:15 AM 32.2 °F 23.8 °F 28.4 °F 86% 30.01 in 10.0 mi NW 10.4 mph - N/A   Overcast
9:35 AM 32.4 °F 26.0 °F 28.4 °F 85% 30.01 in 10.0 mi NNW 6.9 mph - N/A   Overcast
9:55 AM 33.1 °F 26.1 °F 28.8 °F 84% 30.02 in 10.0 mi NNW 8.1 mph - N/A   Overcast
10:15 AM 33.3 °F 25.1 °F 28.9 °F 84% 30.02 in 10.0 mi NW 10.4 mph - N/A   Overcast
10:35 AM 33.8 °F 25.3 °F 28.8 °F 82% 30.03 in 10.0 mi NW 11.5 mph - N/A   Overcast
10:55 AM 33.8 °F 25.8 °F 28.2 °F 80% 30.03 in 10.0 mi NW 10.4 mph - N/A   Overcast
11:15 AM 33.8 °F 25.3 °F 27.7 °F 78% 30.03 in 10.0 mi NNW 11.5 mph - N/A   Overcast
11:34 AM 36.1 °F 29.3 °F 30.2 °F 79% 30.03 in 7.0 mi NNW 9.2 mph - N/A Snow Light Snow
11:55 AM 34.7 °F 25.9 °F 30.0 °F 83% 30.04 in 1.0 mi NW 12.7 mph 18.4 mph N/A Snow Light Snow
12:15 PM 36.1 °F 30.6 °F 30.6 °F 80% 30.04 in 7.0 mi NNW 6.9 mph - N/A   Overcast
12:35 PM 36.1 °F 27.7 °F 29.8 °F 78% 30.03 in 10.0 mi NW 12.7 mph 16.1 mph N/A   Overcast
12:55 PM 36.1 °F 29.9 °F 29.8 °F 78% 30.03 in 7.0 mi NW 8.1 mph - N/A   Overcast
1:15 PM 36.1 °F 28.7 °F 29.3 °F 76% 30.03 in 10.0 mi NW 10.4 mph - N/A   Overcast
1:35 PM 36.1 °F 27.7 °F 27.3 °F 70% 30.03 in 10.0 mi NNW 12.7 mph 17.3 mph N/A   Overcast
1:55 PM 36.1 °F 29.9 °F 28.9 °F 75% 30.03 in 10.0 mi North 8.1 mph 16.1 mph N/A   Overcast
2:15 PM 36.1 °F 26.9 °F 27.1 °F 70% 30.03 in 10.0 mi NW 15.0 mph - N/A   Overcast
2:35 PM 36.1 °F 28.7 °F 26.8 °F 69% 30.03 in 10.0 mi NNW 10.4 mph 18.4 mph N/A   Overcast
2:54 PM 36.1 °F 28.7 °F 26.4 °F 68% 30.03 in 10.0 mi North 10.4 mph 16.1 mph N/A   Overcast
3:15 PM 36.1 °F 27.7 °F 25.7 °F 66% 30.03 in 10.0 mi NNW 12.7 mph 17.3 mph N/A   Overcast
3:35 PM 36.1 °F 27.7 °F 26.2 °F 67% 30.03 in 10.0 mi NNW 12.7 mph 24.2 mph N/A   Overcast
3:55 PM 36.1 °F 27.7 °F 25.2 °F 64% 30.03 in 10.0 mi NNW 12.7 mph 17.3 mph N/A   Overcast
4:15 PM 36.1 °F 28.7 °F 23.5 °F 60% 30.03 in 10.0 mi NNW 10.4 mph - N/A   Overcast
4:35 PM 36.3 °F 28.4 °F 22.1 °F 56% 30.03 in 10.0 mi North 11.5 mph 17.3 mph N/A   Overcast
4:55 PM 36.5 °F 27.8 °F 22.5 °F 57% 30.03 in 10.0 mi NNW 13.8 mph 20.7 mph N/A   Overcast
5:15 PM 36.9 °F 28.7 °F 21.2 °F 53% 30.03 in 10.0 mi NNW 12.7 mph 20.7 mph N/A   Overcast
5:35 PM 37.0 °F 31.0 °F 21.0 °F 52% 30.04 in 10.0 mi NNW 8.1 mph 18.4 mph N/A   Overcast
5:55 PM 36.1 °F 29.3 °F 20.7 °F 53% 30.04 in 10.0 mi NNW 9.2 mph 16.1 mph N/A   Mostly Cloudy
6:15 PM 36.1 °F 27.3 °F 20.7 °F 53% 30.04 in 10.0 mi NNW 13.8 mph 19.6 mph N/A   Scattered Clouds
6:35 PM 36.1 °F 28.7 °F 20.8 °F 54% 30.05 in 10.0 mi NNW 10.4 mph - N/A   Scattered Clouds
6:55 PM 36.1 °F 26.9 °F 21.6 °F 56% 30.06 in 10.0 mi NW 15.0 mph - N/A   Mostly Cloudy
7:15 PM 36.1 °F 27.7 °F 21.4 °F 55% 30.06 in 10.0 mi NW 12.7 mph 17.3 mph N/A   Overcast
7:35 PM 36.1 °F 29.3 °F 21.6 °F 56% 30.07 in 10.0 mi NW 9.2 mph 17.3 mph N/A   Overcast
7:55 PM 36.1 °F 29.3 °F 22.1 °F 57% 30.07 in 10.0 mi NW 9.2 mph - N/A   Overcast
8:14 PM 36.1 °F 28.2 °F 22.6 °F 58% 30.07 in 10.0 mi NNW 11.5 mph 17.3 mph N/A   Overcast
8:35 PM 36.1 °F 29.9 °F 23.4 °F 60% 30.08 in 10.0 mi NW 8.1 mph - N/A   Overcast
8:55 PM 36.1 °F 29.3 °F 23.4 °F 60% 30.08 in 10.0 mi NW 9.2 mph - N/A   Overcast
9:14 PM 36.1 °F 29.3 °F 23.7 °F 61% 30.08 in 10.0 mi NW 9.2 mph - N/A   Overcast
9:35 PM 33.8 °F 27.0 °F 22.1 °F 62% 30.09 in 10.0 mi NW 8.1 mph - N/A   Mostly Cloudy
9:55 PM 33.8 °F 27.7 °F 23.2 °F 65% 30.10 in 10.0 mi WNW 6.9 mph - N/A   Scattered Clouds
10:15 PM 33.8 °F 27.0 °F 22.8 °F 64% 30.10 in 10.0 mi NW 8.1 mph - N/A   Mostly Cloudy
10:35 PM 33.3 °F 25.1 °F 23.0 °F 66% 30.10 in 10.0 mi NW 10.4 mph - N/A   Mostly Cloudy
10:55 PM 32.4 °F 24.0 °F 22.3 °F 66% 30.10 in 10.0 mi NW 10.4 mph - N/A   Mostly Cloudy
11:15 PM 31.5 °F 24.2 °F 21.7 °F 67% 30.10 in 10.0 mi NW 8.1 mph - N/A   Mostly Cloudy
11:35 PM 31.5 °F 24.9 °F 22.1 °F 68% 30.10 in 10.0 mi NW 6.9 mph - N/A   Mostly Cloudy
11:54 PM 31.5 °F 24.2 °F 22.3 °F 69% 30.10 in 10.0 mi NW 8.1 mph - N/A   Scattered Clouds